Houghton Lake, MI

12:39 AM EDT on September 01, 2016 (GMT -0400)
Roscommon County

Weather History for KHTL - August, 2013

Change the Weather History Date:

Wednesday, August 7, 2013

  Actual Average Record
Temperature  
Mean Temperature 69 °F 66 °F  
Max Temperature 79 °F 78 °F 96 °F (2001)
Min Temperature 59 °F 54 °F 34 °F (1929)
Degree Days  
Heating Degree Days 0 2  
Month to date heating degree days 22 14  
Since 1 June heating degree days 169 185  
Since 1 July heating degree days 67 61  
Cooling Degree Days 4 3  
Month to date cooling degree days 9 21  
Year to date cooling degree days 274 208  
Since 1 June cooling degree days 234 192  
Growing Degree Days 20 (Base 50)    
Moisture  
Dew Point 62 °F    
Average Humidity 78    
Maximum Humidity 100    
Minimum Humidity 56    
Precipitation  
Precipitation 0.26 in 0.11 in 3.12 in (1981)
Month to date precipitation 0.59 0.78  
Year to date precipitation 18.96 16.50  
Sea Level Pressure  
Sea Level Pressure 29.83 in    
Wind  
Wind Speed 8 mph (West)    
Max Wind Speed 25 mph    
Max Gust Speed 35 mph    
Visibility 8 miles    
Events Rain , Thunderstorm    
T = Trace of Precipitation, MM = Missing Value Source: NWS Daily Summary

Daily Weather History Graph

Daily Weather History Graph

Search for Another Location

Airport or City:

Trip Planner

Search our weather history database for the weather conditions in past years. The results will help you decide how hot, cold, wet, or windy it might be!

Date:

Astronomy

Aug. 07, 2013 Rise Set
Actual Time 6:32 AM EDT 8:55 PM EDT
Civil Twilight 6:00 AM EDT 9:27 PM EDT
Nautical Twilight 5:20 AM EDT 10:07 PM EDT
Astronomical Twilight 4:34 AM EDT 10:52 PM EDT
Moon 7:25 AM EDT (8/7) 8:56 PM EDT (8/7)
Length of Visible Light 15h 27m
Length of Day
14h 22m
New Moon, 1% of the Moon is Illuminated
Aug 7
New Moon
Aug 14
First Quarter
Aug 20
Full
Aug 28
Last Quarter
Sep 5
New

Hourly Weather History & Observations

Time (EDT) Temp. Dew Point Humidity Pressure Visibility Wind Dir Wind Speed Gust Speed Precip Events Conditions
12:53 AM 66.0 °F 64.0 °F 93% 29.85 in 7.0 mi SSW 5.8 mph - N/A   Clear
1:53 AM 64.9 °F 64.0 °F 97% 29.83 in 5.0 mi South 5.8 mph - N/A   Clear
2:29 AM 66.2 °F 64.4 °F 94% 29.83 in 5.0 mi SSE 3.5 mph - N/A   Mostly Cloudy
2:53 AM 64.9 °F 64.0 °F 97% 29.82 in 4.0 mi Calm Calm - N/A   Mostly Cloudy
3:05 AM 66.2 °F 64.4 °F 94% 29.83 in 5.0 mi South 5.8 mph - N/A   Partly Cloudy
3:53 AM 68.0 °F 66.0 °F 93% 29.79 in 8.0 mi SSW 8.1 mph - N/A   Scattered Clouds
4:19 AM 69.8 °F 66.2 °F 88% 29.80 in 8.0 mi SSW 8.1 mph - N/A Thunderstorm Mostly Cloudy
4:30 AM 69.8 °F 66.2 °F 88% 29.81 in 2.5 mi West 18.4 mph 28.8 mph 0.04 in Rain , Thunderstorm Heavy Thunderstorms and Rain
4:34 AM 66.2 °F 64.4 °F 94% 29.82 in 1.5 mi West 25.3 mph 34.5 mph 0.11 in Rain , Thunderstorm Heavy Thunderstorms and Rain
4:40 AM 64.4 °F 60.8 °F 88% 29.80 in 1.8 mi West 12.7 mph 34.5 mph 0.21 in Rain , Thunderstorm Heavy Thunderstorms and Rain
4:42 AM 64.4 °F 62.6 °F 94% 29.80 in 2.0 mi West 12.7 mph 34.5 mph 0.21 in Rain , Thunderstorm Thunderstorms and Rain
4:44 AM 66.2 °F 62.6 °F 88% 29.80 in 3.0 mi West 12.7 mph 32.2 mph 0.21 in Rain , Thunderstorm Light Thunderstorms and Rain
4:53 AM 64.9 °F 62.1 °F 90% 29.79 in 6.0 mi West 11.5 mph 26.5 mph 0.23 in Rain , Thunderstorm Thunderstorms and Rain
5:14 AM 64.4 °F 60.8 °F 88% 29.79 in 10.0 mi SSW 5.8 mph - 0.03 in   Mostly Cloudy
5:53 AM 64.0 °F 62.1 °F 93% 29.74 in 10.0 mi South 9.2 mph - 0.03 in Rain Light Rain
6:53 AM 63.0 °F 60.1 °F 90% 29.76 in 10.0 mi SSW 8.1 mph - 0.00 in   Clear
7:53 AM 63.0 °F 60.1 °F 90% 29.77 in 10.0 mi WSW 5.8 mph - N/A   Mostly Cloudy
8:53 AM 64.0 °F 60.1 °F 87% 29.78 in 10.0 mi West 4.6 mph - N/A   Clear
9:53 AM 68.0 °F 60.1 °F 76% 29.80 in 10.0 mi WNW 6.9 mph - N/A   Partly Cloudy
10:30 AM 69.8 °F 60.8 °F 73% 29.81 in 10.0 mi WNW 10.4 mph - N/A   Mostly Cloudy
10:53 AM 69.1 °F 60.1 °F 73% 29.81 in 10.0 mi West 8.1 mph - N/A   Overcast
11:53 AM 72.0 °F 61.0 °F 68% 29.82 in 10.0 mi West 9.2 mph - N/A   Scattered Clouds
12:53 PM 73.9 °F 61.0 °F 64% 29.84 in 10.0 mi West 8.1 mph - N/A   Scattered Clouds
1:53 PM 75.9 °F 61.0 °F 60% 29.83 in 10.0 mi West 6.9 mph 16.1 mph N/A   Mostly Cloudy
2:53 PM 77.0 °F 61.0 °F 58% 29.82 in 10.0 mi West 9.2 mph - N/A   Scattered Clouds
3:53 PM 77.0 °F 60.1 °F 56% 29.83 in 10.0 mi WNW 10.4 mph - N/A   Scattered Clouds
4:53 PM 77.0 °F 61.0 °F 58% 29.84 in 10.0 mi West 10.4 mph - N/A   Mostly Cloudy
5:53 PM 75.9 °F 60.1 °F 58% 29.86 in 10.0 mi NW 12.7 mph - N/A   Partly Cloudy
6:53 PM 73.9 °F 61.0 °F 64% 29.87 in 10.0 mi NNW 11.5 mph - N/A   Clear
7:53 PM 70.0 °F 61.0 °F 73% 29.89 in 10.0 mi NNW 10.4 mph - N/A   Clear
8:53 PM 66.0 °F 60.1 °F 81% 29.91 in 10.0 mi NNW 5.8 mph - N/A   Clear
9:53 PM 64.0 °F 59.0 °F 84% 29.93 in 10.0 mi NNW 5.8 mph - N/A   Clear
10:53 PM 62.1 °F 57.9 °F 86% 29.95 in 10.0 mi NNW 6.9 mph - N/A   Clear
11:53 PM 61.0 °F 57.9 °F 90% 29.97 in 10.0 mi NNW 5.8 mph - N/A   Clear